Theta_e
346 347 347 347 348 348 348 348 347 346 347 345 345 345 345 345 344 344 344 341 341 342 341 343 344 344 343 344 345 343 341 344 345 343 340 346 341 342 343 344 343 342 340
344 347 347 348 348 346 347 347 347 346 345 346 346 346 345 346 345 344 344 343 341 342 341 342 342 342 343 343 344 341 340 341 345 345 343 344 345 343 344 345 342 343 342
345 347 348 348 348 346 346 347 346 345 346 346 347 348 347 345 344 344 344 342 341 341 341 342 341 344 342 344 344 339 340 343 344 344 342 345 344 345 345 345 342 342 342
346 348 347 348 348 346 346 346 346 346 347 347 348 348 346 344 344 343 343 341 341 341 341 341 341 345 342 343 346 342 343 343 341 343 344 344 342 342 346 346 344 343 345
347 348 347 348 348 348 347 346 346 346 347 348 348 347 346 345 344 344 344 342 341 342 341 339 341 345 343 345 344 346 346 345 343 344 342 345 344 345 342 346 346 345 345
344 346 347 348 348 348 349 348 347 349 348 349 350 348 347 345 344 344 344 342 341 341 337 338 340 343 345 344 342 343 346 345 346 343 345 346 346 345 345 346 345 346 346
342 344 344 347 348 348 349 348 348 349 349 349 351 349 346 344 344 343 343 343 341 340 336 334 335 342 340 339 342 341 344 342 341 342 345 346 344 345 345 343 343 344 346
342 343 344 346 346 347 348 348 348 349 349 349 350 349 345 342 343 344 344 343 343 340 339 336 339 338 339 339 341 341 337 342 340 342 344 342 343 345 346 345 342 339 342
345 345 346 346 344 343 345 349 348 349 350 351 350 350 346 343 342 344 344 343 341 341 341 341 342 337 338 341 345 346 340 340 341 344 342 342 345 343 345 344 342 344 343
348 348 347 347 346 345 345 346 348 350 351 351 351 352 348 344 344 344 344 344 342 338 339 340 341 342 342 344 346 346 344 341 339 342 341 344 347 345 343 345 338 340 343
351 352 352 352 350 348 347 348 350 351 351 352 352 351 352 348 345 345 344 344 344 342 340 343 344 345 345 344 341 343 342 341 343 341 343 344 344 343 343 344 346 343 344
346 346 346 348 351 352 352 350 349 349 350 352 352 351 351 351 350 348 345 344 343 343 343 343 344 345 345 345 345 345 343 339 344 342 345 345 343 345 345 343 344 345 347
339 336 333 333 332 333 337 347 352 353 353 353 352 351 351 350 351 348 348 345 344 344 343 343 345 345 345 345 345 343 344 342 342 343 344 342 346 346 343 346 344 345 345
334 333 332 331 331 331 329 328 328 331 334 337 339 345 350 351 350 348 348 347 348 344 344 344 344 345 345 344 344 345 344 344 342 345 345 343 342 346 345 344 345 344 346
334 332 331 330 331 332 330 329 328 328 329 329 329 328 330 340 346 350 348 346 347 347 346 343 345 345 346 344 344 344 344 342 341 343 342 343 342 342 344 344 345 345 347
333 332 330 329 330 330 329 330 330 330 330 330 330 330 329 329 332 338 344 349 347 346 348 344 343 345 345 344 345 344 346 344 342 340 341 344 342 341 343 346 346 345 347
330 329 330 329 329 329 329 329 330 331 331 331 331 331 331 330 329 329 333 339 345 350 348 348 348 345 346 345 346 346 346 345 344 341 342 340 339 341 342 342 344 346 345
329 329 329 329 328 328 330 331 331 332 332 332 332 332 332 332 332 331 330 329 333 338 343 347 348 348 348 348 347 348 347 346 345 343 343 343 339 342 343 344 344 343 345
328 329 330 331 331 331 332 332 332 330 330 331 333 334 333 333 332 331 332 331 331 329 331 336 339 342 347 347 347 347 346 348 348 344 342 344 344 340 345 345 346 345 343
330 330 330 330 329 329 329 328 328 328 328 331 331 331 331 330 329 329 332 332 331 330 331 329 329 334 337 339 346 347 347 345 347 347 346 343 341 344 344 344 344 345 342
328 328 328 327 326 326 326 326 325 325 327 327 328 330 330 329 328 329 329 330 331 330 331 331 330 329 332 336 336 343 346 347 346 346 346 343 345 343 343 344 345 345 344
326 326 325 325 325 326 326 327 327 328 328 328 327 328 329 328 329 329 329 330 330 331 332 331 329 329 329 336 335 335 344 345 343 344 341 344 343 344 343 344 343 345 345
326 325 325 325 326 327 326 327 327 327 328 328 328 328 329 330 329 330 330 330 329 331 331 330 330 329 329 334 335 335 337 334 337 329 329 331 335 339 339 339 340 343 346
325 325 325 325 325 325 326 326 326 325 326 326 326 327 328 329 330 330 330 329 330 330 330 330 330 330 329 332 333 336 332 332 333 333 326 334 327 338 334 338 339 340 342
324 324 325 325 325 324 324 326 326 326 325 326 327 328 328 327 330 330 330 330 330 331 330 330 330 333 332 330 333 335 335 337 337 333 330 326 327 327 329 334 340 338 338
325 324 324 323 323 324 324 324 325 326 326 325 326 325 325 325 328 330 330 330 330 330 330 329 331 333 333 333 333 333 335 337 337 331 332 332 332 333 334 333 337 342 337
Wind_Speed
20 18 15 15 17 20 20 19 17 15 15 14 14 14 16 14 15 15 13 13 16 20 20 18 15 10 8 6 6 7 5 3 4 3 5 8 5 5 4 3 4 3 2
18 20 19 18 20 17 16 17 17 17 16 16 12 11 9 13 13 13 14 14 16 20 21 20 16 13 10 8 5 4 4 1 3 1 5 5 7 9 8 6 7 4 4
19 20 20 21 20 19 18 18 16 17 17 15 14 15 15 15 15 16 16 14 16 20 24 23 18 15 12 10 7 4 2 3 2 3 4 4 4 7 14 10 9 7 7
20 22 22 22 22 18 19 16 15 15 16 17 16 18 17 16 16 14 11 14 16 21 25 23 20 16 14 11 7 6 4 2 3 4 5 3 5 2 3 11 12 13 11
19 21 23 23 22 21 20 17 15 16 17 18 19 19 18 15 14 13 12 15 18 22 27 25 21 16 14 11 10 9 7 5 4 4 6 5 5 6 8 6 16 18 15
26 20 21 23 24 23 24 21 19 16 18 19 19 18 17 16 17 16 16 16 19 21 26 27 23 17 16 12 13 10 9 8 7 5 5 6 4 7 6 8 11 20 20
24 23 20 22 24 24 27 24 23 20 14 18 18 16 15 16 17 16 15 17 19 25 27 26 25 22 17 16 13 13 13 12 9 8 9 10 9 9 8 10 10 14 19
19 20 20 20 22 27 29 26 25 23 15 17 17 13 15 17 17 17 14 15 17 21 26 25 22 23 18 17 16 13 15 13 11 11 11 11 11 10 9 10 10 8 12
14 16 18 19 24 19 24 32 25 22 20 19 16 13 15 17 18 17 16 15 15 17 25 25 24 24 21 19 18 17 16 16 13 10 10 11 13 11 11 10 10 9 6
6 8 14 18 21 25 23 24 25 24 22 16 15 15 16 15 16 17 18 16 16 18 19 22 23 24 22 20 20 19 18 19 17 15 15 15 12 12 11 8 7 11 13
15 12 8 1 8 16 20 21 25 25 26 22 18 18 12 15 15 18 18 18 18 20 22 22 22 21 20 21 24 22 21 22 19 18 17 15 14 13 14 14 12 12 14
13 13 12 10 9 6 6 12 19 20 21 21 22 24 20 15 15 16 17 19 22 23 25 25 25 25 25 23 28 31 28 23 23 19 19 17 15 15 15 17 15 13 13
14 14 14 15 15 15 14 12 5 6 12 18 20 22 24 19 18 13 13 20 24 29 28 29 29 28 26 27 27 26 27 23 25 23 21 21 20 20 19 18 19 18 16
13 12 12 10 10 11 12 12 12 12 12 11 13 15 15 15 19 20 20 22 20 26 33 32 32 30 28 27 26 24 29 28 27 27 24 22 23 21 19 21 21 18 17
12 10 8 7 5 5 10 14 16 17 16 18 20 16 13 11 12 15 16 23 27 28 24 34 36 33 32 31 29 29 27 32 30 30 27 26 25 25 23 22 21 20 19
10 7 6 3 7 10 12 13 15 18 21 21 18 17 14 13 12 12 13 19 23 27 31 29 32 39 37 33 32 31 31 31 33 32 29 28 25 27 26 26 25 23 22
5 3 6 9 8 10 13 16 15 16 18 19 19 18 16 13 12 14 16 17 17 25 28 33 32 33 36 37 33 32 32 30 31 33 32 31 29 27 28 28 28 26 24
2 2 4 7 10 12 13 16 19 20 21 22 22 22 21 21 19 19 18 19 21 20 22 27 31 36 38 38 38 34 34 31 31 32 33 32 30 29 29 30 29 28 28
1 2 2 5 7 10 13 16 19 21 23 23 23 22 21 24 26 27 25 22 22 25 26 24 25 27 34 36 37 35 35 38 35 34 34 32 30 32 28 29 28 28 25
1 3 6 10 14 17 20 24 26 30 30 27 28 29 28 28 30 28 28 27 27 28 28 29 30 27 28 29 36 37 37 39 40 37 35 34 34 31 29 29 29 29 28
6 11 14 19 21 23 24 25 25 25 26 28 33 35 36 37 37 33 31 32 32 30 28 30 29 30 29 29 28 34 36 37 35 36 36 36 36 37 33 33 33 35 30
12 14 17 19 20 21 21 23 23 23 25 26 28 28 31 33 33 34 32 30 30 29 28 30 32 29 28 27 27 25 28 28 24 23 12 19 21 33 36 36 37 35 35
16 17 19 20 18 18 19 21 21 21 24 26 27 28 28 28 28 30 31 31 29 28 30 30 31 30 27 25 25 25 22 23 34 38 42 41 36 31 33 39 38 34 34
14 14 15 15 17 19 19 20 20 21 26 29 29 30 29 29 28 28 30 29 28 27 28 28 28 28 27 27 23 22 21 25 21 21 25 57 49 38 38 38 42 40 35
12 13 16 18 21 23 22 22 24 29 31 31 29 31 33 30 28 27 26 26 25 24 25 26 25 25 25 23 20 19 20 23 29 24 27 39 46 41 45 39 41 43 38
14 17 19 22 23 23 25 25 27 28 29 31 29 30 33 31 27 27 26 22 24 25 25 26 27 24 23 23 22 23 22 21 22 27 34 44 46 42 41 36 34 41 40
Wind_Direction
185 212 198 190 200 205 210 213 210 204 208 204 207 222 235 239 242 237 229 216 223 222 217 208 215 226 235 240 276 253 291 351 32 186 219 215 205 203 218 234 202 145 129
193 201 193 197 206 201 206 212 212 210 212 216 222 234 254 250 253 244 232 233 228 216 214 209 218 228 238 234 255 276 285 271 322 271 183 189 219 237 246 245 206 183 200
198 201 202 209 212 210 210 213 218 221 225 230 230 238 240 243 238 231 232 227 218 212 210 210 217 217 227 225 245 273 276 281 280 317 228 181 202 239 241 228 215 200 221
202 201 206 208 214 215 219 218 223 231 236 236 239 246 253 257 247 239 241 222 217 213 208 210 214 219 223 216 240 234 254 290 314 264 244 252 247 309 264 236 225 222 228
202 206 211 220 225 226 224 222 224 232 236 236 240 248 253 257 248 234 234 223 217 215 210 210 213 220 224 226 234 247 261 257 276 303 287 250 255 274 255 268 232 235 239
211 220 226 230 234 237 232 229 230 235 233 236 240 248 251 248 236 231 229 225 218 213 207 212 216 225 220 231 238 245 246 260 258 264 284 308 305 320 285 271 260 236 238
216 229 239 239 243 244 237 235 236 243 243 234 242 246 247 243 236 236 239 230 223 216 214 216 220 223 235 227 241 247 247 258 260 269 266 276 284 300 285 278 252 237 234
222 233 234 250 250 254 244 235 240 238 248 249 250 244 242 239 236 233 235 233 233 223 217 221 223 223 231 233 241 253 254 261 263 259 263 271 270 270 289 287 236 235 238
224 234 253 258 247 265 254 242 248 245 251 252 259 251 245 242 239 238 236 236 230 226 222 224 230 226 232 236 242 254 252 252 255 251 253 261 270 261 268 300 231 236 238
177 220 247 262 263 257 260 250 252 252 256 253 268 272 257 255 247 241 240 235 227 220 218 223 231 235 238 241 245 250 249 248 253 249 249 252 251 254 256 272 248 250 259
104 97 84 323 262 255 251 252 251 255 257 253 254 262 276 259 254 247 247 241 234 229 230 232 235 236 242 249 252 253 254 247 249 245 245 243 249 244 250 251 260 259 263
95 86 75 59 44 28 280 252 254 260 258 258 256 267 268 262 255 263 256 249 242 236 236 237 240 244 250 258 254 260 252 248 243 245 245 244 245 240 245 250 260 258 259
111 100 89 75 65 57 48 37 6 290 268 264 264 268 269 272 278 267 266 256 252 245 240 241 242 242 248 255 258 250 238 253 254 246 247 252 250 245 240 248 252 260 257
123 110 91 72 56 44 38 32 18 4 355 345 337 322 302 290 275 263 256 264 265 255 244 247 248 248 251 253 253 252 248 255 253 249 248 256 248 248 244 242 243 248 256
140 118 97 83 59 51 17 356 348 341 333 328 323 315 314 305 296 279 261 258 259 262 260 251 251 253 253 251 251 250 260 252 253 250 253 251 250 244 245 246 240 244 250
139 133 121 66 8 353 342 333 328 323 319 321 324 322 315 294 296 291 284 257 252 256 256 252 255 252 253 254 252 250 254 252 255 246 249 247 253 244 241 244 244 247 245
129 51 3 350 342 330 321 318 318 315 315 317 319 319 320 321 327 301 287 283 269 257 258 258 258 260 256 253 253 253 253 248 249 248 247 247 250 245 243 246 247 247 246
51 358 314 301 300 297 293 291 294 295 297 297 298 301 303 305 306 310 310 290 281 281 272 265 263 262 262 257 253 251 255 253 249 248 248 250 248 246 245 249 248 249 249
291 290 294 303 304 296 289 282 286 293 293 294 294 291 285 286 293 296 296 294 288 281 275 277 276 276 267 263 264 260 250 251 249 244 244 247 249 242 242 242 244 247 249
9 312 308 306 301 299 299 297 295 293 295 291 286 282 281 284 288 288 286 285 284 284 283 279 274 277 277 272 263 260 259 249 247 247 246 246 248 246 241 240 243 246 246
323 312 308 305 304 302 302 301 299 296 293 290 283 281 281 283 283 280 278 282 285 287 273 274 279 275 274 274 275 265 258 258 248 247 252 250 251 249 249 250 250 247 248
317 315 312 306 302 304 304 300 298 300 298 296 293 295 288 281 280 280 281 284 282 278 276 275 274 279 271 273 276 272 262 251 221 209 212 244 257 261 253 246 248 253 251
310 307 307 307 307 304 306 305 306 304 299 301 297 297 296 292 286 285 284 284 282 277 275 276 273 277 268 268 272 275 261 267 263 283 292 267 270 256 263 253 246 242 251
327 325 327 321 321 320 310 308 305 307 315 308 298 296 297 297 295 291 290 283 283 278 277 272 271 278 271 262 267 265 252 261 261 243 263 254 259 240 253 258 250 242 239
328 326 322 318 318 320 320 309 306 307 309 310 305 302 302 299 298 294 293 287 282 276 279 272 272 276 270 258 264 266 267 261 257 252 243 243 246 251 252 252 248 243 239
330 327 325 324 325 320 320 322 320 317 314 315 312 305 304 300 298 301 302 293 287 285 281 267 262 271 275 262 261 258 264 268 251 244 253 252 249 253 245 252 254 245 238